Wetterdaten: Mittwoch, 01.08.2012
Datum Zeit Temperatur Luftfeuchte Regen Wind Richtung Richtung Taupunkt Windchill Windben
01.08.2012 00:00 13,1 C 84 % 0,0 l/m 0,2 km/h (0 Bft) NW 315 10,5 C 12,7 C 0,0 km/h (0 Bft)
01.08.2012 00:05 12,9 C 85 % 0,0 l/m 0,2 km/h (0 Bft) N 360 10,4 C 12,7 C 0,0 km/h (0 Bft)
01.08.2012 00:10 12,7 C 85 % 0,0 l/m 0,0 km/h (0 Bft) NO 45 10,2 C 12,5 C 0,0 km/h (0 Bft)
01.08.2012 00:15 12,7 C 85 % 0,0 l/m 0,0 km/h (0 Bft) W-SW 247 10,2 C 12,3 C 0,0 km/h (0 Bft)
01.08.2012 00:20 12,5 C 85 % 0,0 l/m 0,0 km/h (0 Bft) NO 45 10,0 C 12,2 C 0,0 km/h (0 Bft)
01.08.2012 00:25 12,6 C 86 % 0,0 l/m 0,0 km/h (0 Bft) NO 45 10,3 C 12,1 C 0,0 km/h (0 Bft)
01.08.2012 00:30 12,6 C 86 % 0,0 l/m 0,0 km/h (0 Bft) N-NO 22 10,3 C 12,1 C 0,0 km/h (0 Bft)
01.08.2012 00:35 12,3 C 86 % 0,0 l/m 0,0 km/h (0 Bft) S-SW 202 10,0 C 12,0 C 0,0 km/h (0 Bft)
01.08.2012 00:40 12,4 C 86 % 0,0 l/m 0,0 km/h (0 Bft) S 180 10,1 C 12,0 C 0,0 km/h (0 Bft)
01.08.2012 00:45 12,2 C 86 % 0,0 l/m 0,0 km/h (0 Bft) W-SW 247 9,9 C 12,0 C 0,0 km/h (0 Bft)
01.08.2012 00:50 12,1 C 86 % 0,0 l/m 0,0 km/h (0 Bft) NW 315 9,8 C 11,9 C 0,0 km/h (0 Bft)
01.08.2012 00:55 12,0 C 86 % 0,0 l/m 0,0 km/h (0 Bft) N-NO 22 9,7 C 11,7 C 0,0 km/h (0 Bft)
01.08.2012 01:00 12,0 C 86 % 0,0 l/m 0,0 km/h (0 Bft) S 180 9,7 C 11,6 C 0,0 km/h (0 Bft)
01.08.2012 01:05 11,8 C 87 % 0,0 l/m 0,0 km/h (0 Bft) SO 135 9,7 C 11,5 C 0,0 km/h (0 Bft)
01.08.2012 01:10 11,8 C 87 % 0,0 l/m 0,0 km/h (0 Bft) SO 135 9,7 C 11,6 C 0,0 km/h (0 Bft)
01.08.2012 01:15 11,9 C 87 % 0,0 l/m 0,2 km/h (0 Bft) N 360 9,8 C 11,8 C 0,0 km/h (0 Bft)
01.08.2012 01:20 11,9 C 88 % 0,0 l/m 0,2 km/h (0 Bft) O-SO 112 10,0 C 11,8 C 0,0 km/h (0 Bft)
01.08.2012 01:25 11,8 C 88 % 0,0 l/m 0,0 km/h (0 Bft) S-SO 157 9,9 C 11,6 C 0,0 km/h (0 Bft)
01.08.2012 01:30 11,7 C 88 % 0,0 l/m 0,0 km/h (0 Bft) O 90 9,8 C 11,6 C 0,0 km/h (0 Bft)
01.08.2012 01:35 11,6 C 88 % 0,0 l/m 0,0 km/h (0 Bft) S 180 9,7 C 11,5 C 0,0 km/h (0 Bft)
01.08.2012 01:40 11,7 C 88 % 0,0 l/m 0,0 km/h (0 Bft) O-SO 112 9,8 C 11,5 C 0,0 km/h (0 Bft)
01.08.2012 01:45 11,6 C 88 % 0,0 l/m 0,0 km/h (0 Bft) NO 45 9,7 C 11,2 C 0,0 km/h (0 Bft)
01.08.2012 01:50 11,5 C 88 % 0,0 l/m 0,0 km/h (0 Bft) NO 45 9,6 C 11,2 C 0,0 km/h (0 Bft)
01.08.2012 01:55 11,4 C 88 % 0,0 l/m 0,0 km/h (0 Bft) SO 135 9,5 C 11,0 C 0,0 km/h (0 Bft)
01.08.2012 02:00 11,4 C 88 % 0,0 l/m 0,0 km/h (0 Bft) SW 225 9,5 C 11,1 C 0,0 km/h (0 Bft)
01.08.2012 02:05 11,6 C 88 % 0,0 l/m 0,0 km/h (0 Bft) N-NO 22 9,7 C 11,0 C 0,0 km/h (0 Bft)
01.08.2012 02:10 11,6 C 88 % 0,0 l/m 0,0 km/h (0 Bft) N 360 9,7 C 11,2 C 0,0 km/h (0 Bft)
01.08.2012 02:15 11,3 C 88 % 0,0 l/m 0,0 km/h (0 Bft) W 270 9,4 C 11,2 C 0,0 km/h (0 Bft)
01.08.2012 02:20 11,1 C 88 % 0,0 l/m 0,0 km/h (0 Bft) O-NO 67 9,2 C 11,1 C 0,0 km/h (0 Bft)
01.08.2012 02:25 11,0 C 88 % 0,0 l/m 0,0 km/h (0 Bft) W-SW 247 9,1 C 11,0 C 0,0 km/h (0 Bft)
01.08.2012 02:30 10,8 C 89 % 0,0 l/m 0,0 km/h (0 Bft) SO 135 9,1 C 10,8 C 0,0 km/h (0 Bft)
01.08.2012 02:35 10,8 C 89 % 0,0 l/m 0,0 km/h (0 Bft) NO 45 9,1 C 10,6 C 0,0 km/h (0 Bft)
01.08.2012 02:40 11,2 C 89 % 0,0 l/m 0,0 km/h (0 Bft) N 360 9,5 C 10,7 C 0,0 km/h (0 Bft)
01.08.2012 02:45 10,8 C 89 % 0,0 l/m 0,0 km/h (0 Bft) S 180 9,1 C 10,8 C 0,0 km/h (0 Bft)
01.08.2012 02:50 10,8 C 89 % 0,0 l/m 0,0 km/h (0 Bft) N 360 9,1 C 10,7 C 0,0 km/h (0 Bft)
01.08.2012 02:55 10,6 C 89 % 0,0 l/m 0,0 km/h (0 Bft) SO 135 8,9 C 10,4 C 0,0 km/h (0 Bft)
01.08.2012 03:00 10,5 C 89 % 0,0 l/m 0,0 km/h (0 Bft) N-NO 22 8,8 C 10,3 C 0,0 km/h (0 Bft)
01.08.2012 03:05 10,5 C 89 % 0,0 l/m 0,0 km/h (0 Bft) N-NW 337 8,8 C 10,2 C 0,0 km/h (0 Bft)
01.08.2012 03:10 10,5 C 90 % 0,0 l/m 0,0 km/h (0 Bft) W-NW 292 8,9 C 10,2 C 1,6 km/h (1 Bft)
01.08.2012 03:15 10,4 C 89 % 0,0 l/m 0,0 km/h (0 Bft) N-NO 22 8,7 C 10,3 C 0,0 km/h (0 Bft)
01.08.2012 03:20 10,4 C 89 % 0,0 l/m 0,0 km/h (0 Bft) O-SO 112 8,7 C 10,3 C 0,0 km/h (0 Bft)
01.08.2012 03:25 10,3 C 90 % 0,0 l/m 0,0 km/h (0 Bft) N-NW 337 8,7 C 10,2 C 0,0 km/h (0 Bft)
01.08.2012 03:30 10,6 C 90 % 0,0 l/m 0,0 km/h (0 Bft) N 360 9,0 C 10,2 C 0,0 km/h (0 Bft)
01.08.2012 03:35 10,4 C 90 % 0,0 l/m 0,0 km/h (0 Bft) N-NW 337 8,8 C 10,2 C 0,0 km/h (0 Bft)
01.08.2012 03:40 10,3 C 90 % 0,0 l/m 0,0 km/h (0 Bft) N-NO 22 8,7 C 10,2 C 0,0 km/h (0 Bft)
01.08.2012 03:45 10,5 C 90 % 0,0 l/m 0,0 km/h (0 Bft) NO 45 8,9 C 10,3 C 0,0 km/h (0 Bft)
01.08.2012 03:50 10,6 C 90 % 0,0 l/m 0,0 km/h (0 Bft) SO 135 9,0 C 10,3 C 0,0 km/h (0 Bft)
01.08.2012 03:55 10,7 C 90 % 0,0 l/m 0,0 km/h (0 Bft) NO 45 9,1 C 10,3 C 0,0 km/h (0 Bft)
01.08.2012 04:00 10,5 C 90 % 0,0 l/m 0,0 km/h (0 Bft) O-NO 67 8,9 C 10,1 C 0,0 km/h (0 Bft)
01.08.2012 04:05 10,3 C 90 % 0,0 l/m 0,0 km/h (0 Bft) W 270 8,7 C 10,0 C 0,0 km/h (0 Bft)
01.08.2012 04:10 10,0 C 90 % 0,0 l/m 0,0 km/h (0 Bft) S-SO 157 8,4 C 9,9 C 0,0 km/h (0 Bft)
01.08.2012 04:15 10,0 C 90 % 0,0 l/m 0,0 km/h (0 Bft) NO 45 8,4 C 9,8 C 0,0 km/h (0 Bft)
01.08.2012 04:20 10,1 C 90 % 0,0 l/m 0,0 km/h (0 Bft) W-NW 292 8,5 C 9,7 C 0,0 km/h (0 Bft)
01.08.2012 04:25 10,3 C 91 % 0,0 l/m 0,0 km/h (0 Bft) W-NW 292 8,9 C 9,7 C 0,0 km/h (0 Bft)
01.08.2012 04:30 10,2 C 91 % 0,0 l/m 0,0 km/h (0 Bft) O-SO 112 8,8 C 9,8 C 0,0 km/h (0 Bft)
01.08.2012 04:35 10,2 C 91 % 0,0 l/m 0,2 km/h (0 Bft) N 360 8,8 C 9,8 C 0,0 km/h (0 Bft)
01.08.2012 04:40 10,2 C 91 % 0,0 l/m 0,0 km/h (0 Bft) S 180 8,8 C 9,8 C 0,0 km/h (0 Bft)
01.08.2012 04:45 9,9 C 91 % 0,0 l/m 0,0 km/h (0 Bft) N-NO 22 8,5 C 9,8 C 0,0 km/h (0 Bft)
01.08.2012 04:50 9,9 C 91 % 0,0 l/m 0,0 km/h (0 Bft) O-NO 67 8,5 C 9,7 C 0,0 km/h (0 Bft)
01.08.2012 04:55 10,1 C 91 % 0,0 l/m 0,0 km/h (0 Bft) N-NO 22 8,7 C 9,7 C 0,0 km/h (0 Bft)
01.08.2012 05:00 10,0 C 91 % 0,0 l/m 0,0 km/h (0 Bft) W-SW 247 8,6 C 9,6 C 0,0 km/h (0 Bft)
01.08.2012 05:05 9,8 C 91 % 0,0 l/m 0,0 km/h (0 Bft) W 270 8,4 C 9,6 C 0,0 km/h (0 Bft)
01.08.2012 05:10 9,7 C 91 % 0,0 l/m 0,0 km/h (0 Bft) N-NW 337 8,3 C 9,5 C 0,0 km/h (0 Bft)
01.08.2012 05:15 9,7 C 91 % 0,0 l/m 0,0 km/h (0 Bft) N-NO 22 8,3 C 9,3 C 0,0 km/h (0 Bft)
01.08.2012 05:20 9,7 C 91 % 0,0 l/m 0,0 km/h (0 Bft) N-NO 22 8,3 C 9,3 C 0,0 km/h (0 Bft)
01.08.2012 05:25 9,7 C 91 % 0,0 l/m 0,0 km/h (0 Bft) N-NW 337 8,3 C 9,3 C 0,0 km/h (0 Bft)
01.08.2012 05:30 9,4 C 91 % 0,0 l/m 0,0 km/h (0 Bft) NW 315 8,0 C 9,2 C 0,0 km/h (0 Bft)
01.08.2012 05:35 9,5 C 91 % 0,0 l/m 0,0 km/h (0 Bft) N-NW 337 8,1 C 9,2 C 0,0 km/h (0 Bft)
01.08.2012 05:40 9,8 C 91 % 0,0 l/m 0,0 km/h (0 Bft) W-NW 292 8,4 C 9,3 C 0,0 km/h (0 Bft)
01.08.2012 05:45 9,5 C 91 % 0,0 l/m 0,0 km/h (0 Bft) W-NW 292 8,1 C 9,5 C 0,0 km/h (0 Bft)
01.08.2012 05:50 9,5 C 91 % 0,0 l/m 0,0 km/h (0 Bft) NW 315 8,1 C 9,4 C 0,0 km/h (0 Bft)
01.08.2012 05:55 9,5 C 91 % 0,0 l/m 0,0 km/h (0 Bft) W-SW 247 8,1 C 9,3 C 0,0 km/h (0 Bft)
01.08.2012 06:00 9,8 C 91 % 0,0 l/m 0,0 km/h (0 Bft) NO 45 8,4 C 9,3 C 0,0 km/h (0 Bft)
01.08.2012 06:05 9,7 C 91 % 0,0 l/m 0,0 km/h (0 Bft) N 360 8,3 C 9,5 C 0,0 km/h (0 Bft)
01.08.2012 06:10 9,7 C 91 % 0,0 l/m 0,0 km/h (0 Bft) SO 135 8,3 C 9,5 C 0,0 km/h (0 Bft)
01.08.2012 06:15 9,6 C 91 % 0,0 l/m 0,0 km/h (0 Bft) NW 315 8,2 C 9,3 C 0,0 km/h (0 Bft)
01.08.2012 06:20 9,4 C 91 % 0,0 l/m 0,0 km/h (0 Bft) NW 315 8,0 C 9,3 C 0,0 km/h (0 Bft)
01.08.2012 06:25 9,8 C 91 % 0,0 l/m 0,2 km/h (0 Bft) N 360 8,4 C 9,4 C 0,0 km/h (0 Bft)
01.08.2012 06:30 9,9 C 91 % 0,0 l/m 0,2 km/h (0 Bft) W-SW 247 8,5 C 9,6 C 2,4 km/h (1 Bft)
01.08.2012 06:35 10,1 C 91 % 0,0 l/m 0,3 km/h (0 Bft) N 360 8,7 C 9,9 C 2,3 km/h (1 Bft)
01.08.2012 06:40 10,3 C 92 % 0,0 l/m 0,3 km/h (0 Bft) N 360 9,1 C 11,0 C 2,6 km/h (1 Bft)
01.08.2012 06:45 11,5 C 92 % 0,0 l/m 0,2 km/h (0 Bft) N 360 10,2 C 12,7 C 0,0 km/h (0 Bft)
01.08.2012 06:50 11,6 C 92 % 0,0 l/m 0,0 km/h (0 Bft) W-NW 292 10,3 C 13,3 C 0,0 km/h (0 Bft)
01.08.2012 06:55 14,0 C 89 % 0,0 l/m 0,0 km/h (0 Bft) SO 135 12,2 C 14,4 C 0,0 km/h (0 Bft)
01.08.2012 07:00 14,8 C 88 % 0,0 l/m 0,0 km/h (0 Bft) W-SW 247 12,8 C 15,2 C 0,0 km/h (0 Bft)
01.08.2012 07:05 14,3 C 87 % 0,0 l/m 0,0 km/h (0 Bft) W 270 12,2 C 16,4 C 0,0 km/h (0 Bft)
01.08.2012 07:10 14,5 C 87 % 0,0 l/m 0,0 km/h (0 Bft) W-SW 247 12,4 C 17,0 C 0,0 km/h (0 Bft)
01.08.2012 07:15 15,1 C 86 % 0,0 l/m 0,0 km/h (0 Bft) N-NO 22 12,8 C 17,9 C 0,0 km/h (0 Bft)
01.08.2012 07:20 15,9 C 85 % 0,0 l/m 0,0 km/h (0 Bft) N 360 13,4 C 18,6 C 0,0 km/h (0 Bft)
01.08.2012 07:25 17,8 C 82 % 0,0 l/m 0,0 km/h (0 Bft) SO 135 14,7 C 19,6 C 0,0 km/h (0 Bft)
01.08.2012 07:30 18,1 C 80 % 0,0 l/m 0,0 km/h (0 Bft) S 180 14,6 C 20,2 C 0,0 km/h (0 Bft)
01.08.2012 07:35 15,2 C 75 % 0,0 l/m 0,0 km/h (0 Bft) NO 45 10,8 C 20,8 C 0,0 km/h (0 Bft)
01.08.2012 07:40 15,6 C 78 % 0,0 l/m 0,0 km/h (0 Bft) N-NO 22 11,8 C 21,4 C 0,0 km/h (0 Bft)
01.08.2012 07:45 19,1 C 72 % 0,0 l/m 0,0 km/h (0 Bft) N 360 13,9 C 22,2 C 0,0 km/h (0 Bft)
01.08.2012 07:50 20,0 C 69 % 0,0 l/m 0,0 km/h (0 Bft) N 360 14,1 C 22,4 C 0,0 km/h (0 Bft)
01.08.2012 07:55 20,8 C 67 % 0,0 l/m 0,0 km/h (0 Bft) O-SO 112 14,4 C 23,0 C 0,0 km/h (0 Bft)
01.08.2012 08:00 21,8 C 62 % 0,0 l/m 0,0 km/h (0 Bft) W-SW 247 14,2 C 23,4 C 0,0 km/h (0 Bft)
01.08.2012 08:05 22,2 C 61 % 0,0 l/m 0,0 km/h (0 Bft) SW 225 14,3 C 23,8 C 0,0 km/h (0 Bft)
01.08.2012 08:10 22,5 C 59 % 0,0 l/m 0,2 km/h (0 Bft) NO 45 14,1 C 23,8 C 0,0 km/h (0 Bft)
01.08.2012 08:15 22,2 C 58 % 0,0 l/m 0,2 km/h (0 Bft) S 180 13,5 C 24,5 C 0,0 km/h (0 Bft)
01.08.2012 08:20 22,1 C 57 % 0,0 l/m 0,0 km/h (0 Bft) N 360 13,2 C 24,8 C 0,0 km/h (0 Bft)
01.08.2012 08:25 22,6 C 59 % 0,0 l/m 0,0 km/h (0 Bft) O-SO 112 14,2 C 25,5 C 0,0 km/h (0 Bft)
01.08.2012 08:30 23,1 C 57 % 0,0 l/m 0,2 km/h (0 Bft) S 180 14,1 C 25,7 C 0,0 km/h (0 Bft)
01.08.2012 08:35 23,3 C 58 % 0,0 l/m 0,2 km/h (0 Bft) N-NO 22 14,6 C 26,0 C 0,0 km/h (0 Bft)
01.08.2012 08:40 23,6 C 58 % 0,0 l/m 0,2 km/h (0 Bft) SO 135 15,0 C 26,5 C 0,0 km/h (0 Bft)
01.08.2012 08:45 23,1 C 55 % 0,0 l/m 0,6 km/h (0 Bft) SO 135 15,6 C 26,7 C 2,9 km/h (1 Bft)
01.08.2012 08:50 22,9 C 54 % 0,0 l/m 0,6 km/h (0 Bft) O-SO 112 15,5 C 26,9 C 0,0 km/h (0 Bft)
01.08.2012 08:55 22,7 C 49 % 0,0 l/m 0,3 km/h (0 Bft) NW 315 13,7 C 27,3 C 0,0 km/h (0 Bft)
01.08.2012 09:00 22,7 C 54 % 0,0 l/m 0,3 km/h (0 Bft) W-SW 247 14,9 C 27,5 C 2,6 km/h (1 Bft)
01.08.2012 09:05 22,4 C 53 % 0,0 l/m 1,1 km/h (1 Bft) W 270 14,4 C 27,0 C 2,1 km/h (1 Bft)
01.08.2012 09:10 22,5 C 51 % 0,0 l/m 1,1 km/h (1 Bft) S-SO 157 14,5 C 27,3 C 3,9 km/h (1 Bft)
01.08.2012 09:15 22,7 C 50 % 0,0 l/m 1,0 km/h (0 Bft) W 270 14,2 C 27,6 C 2,6 km/h (1 Bft)
01.08.2012 09:20 22,8 C 50 % 0,0 l/m 1,1 km/h (1 Bft) S-SW 202 14,9 C 27,4 C 4,3 km/h (1 Bft)
01.08.2012 09:25 23,1 C 47 % 0,0 l/m 1,4 km/h (1 Bft) NW 315 15,0 C 27,7 C 1,8 km/h (1 Bft)
01.08.2012 09:30 23,2 C 47 % 0,0 l/m 1,1 km/h (1 Bft) N-NO 22 14,4 C 28,2 C 0,0 km/h (0 Bft)
01.08.2012 09:35 23,4 C 46 % 0,0 l/m 1,0 km/h (0 Bft) O 90 13,8 C 28,6 C 0,0 km/h (0 Bft)
01.08.2012 09:40 23,6 C 48 % 0,0 l/m 1,1 km/h (1 Bft) S 180 14,8 C 28,9 C 5,1 km/h (1 Bft)
01.08.2012 09:45 23,9 C 44 % 0,0 l/m 1,1 km/h (1 Bft) S-SO 157 13,1 C 28,5 C 1,8 km/h (1 Bft)
01.08.2012 09:50 23,7 C 44 % 0,0 l/m 1,8 km/h (1 Bft) S-SW 202 12,9 C 28,9 C 5,3 km/h (1 Bft)
01.08.2012 09:55 23,9 C 45 % 0,0 l/m 1,6 km/h (1 Bft) S-SW 202 14,2 C 28,8 C 3,2 km/h (1 Bft)
01.08.2012 10:00 24,2 C 44 % 0,0 l/m 1,9 km/h (1 Bft) SO 135 13,8 C 28,8 C 6,6 km/h (2 Bft)
01.08.2012 10:05 24,7 C 42 % 0,0 l/m 1,9 km/h (1 Bft) W-NW 292 13,2 C 29,2 C 2,1 km/h (1 Bft)
01.08.2012 10:10 24,7 C 46 % 0,0 l/m 1,3 km/h (1 Bft) SW 225 13,6 C 29,2 C 3,7 km/h (1 Bft)
01.08.2012 10:15 24,9 C 48 % 0,0 l/m 1,1 km/h (1 Bft) SW 225 14,1 C 29,6 C 4,0 km/h (1 Bft)
01.08.2012 10:20 25,2 C 47 % 0,0 l/m 1,3 km/h (1 Bft) O-SO 112 14,8 C 29,7 C 1,6 km/h (1 Bft)
01.08.2012 10:25 25,3 C 45 % 0,0 l/m 2,1 km/h (1 Bft) S 180 14,0 C 29,6 C 2,1 km/h (1 Bft)
01.08.2012 10:30 25,5 C 46 % 0,0 l/m 2,6 km/h (1 Bft) W-SW 247 14,0 C 29,2 C 5,1 km/h (1 Bft)
01.08.2012 10:35 25,5 C 45 % 0,0 l/m 3,2 km/h (1 Bft) SO 135 13,4 C 28,6 C 3,9 km/h (1 Bft)
01.08.2012 10:40 25,3 C 47 % 0,0 l/m 2,7 km/h (1 Bft) O-SO 112 14,4 C 28,5 C 7,1 km/h (2 Bft)
01.08.2012 10:45 25,6 C 45 % 0,0 l/m 2,1 km/h (1 Bft) W-NW 292 13,7 C 29,1 C 4,8 km/h (1 Bft)
01.08.2012 10:50 25,7 C 45 % 0,0 l/m 1,9 km/h (1 Bft) S-SW 202 13,3 C 29,0 C 4,3 km/h (1 Bft)
01.08.2012 10:55 25,9 C 46 % 0,0 l/m 2,6 km/h (1 Bft) S-SW 202 14,2 C 29,0 C 5,8 km/h (2 Bft)
01.08.2012 11:00 26,0 C 46 % 0,0 l/m 3,2 km/h (1 Bft) NW 315 14,0 C 28,7 C 4,3 km/h (1 Bft)
01.08.2012 11:05 26,1 C 46 % 0,0 l/m 3,2 km/h (1 Bft) N 360 14,0 C 28,4 C 3,7 km/h (1 Bft)
01.08.2012 11:10 26,1 C 46 % 0,0 l/m 3,2 km/h (1 Bft) W-SW 247 13,7 C 28,6 C 4,8 km/h (1 Bft)
01.08.2012 11:15 26,4 C 46 % 0,0 l/m 3,7 km/h (1 Bft) S-SW 202 14,2 C 28,5 C 7,1 km/h (2 Bft)
01.08.2012 11:20 26,6 C 46 % 0,0 l/m 3,7 km/h (1 Bft) W-SW 247 14,0 C 28,5 C 7,2 km/h (2 Bft)
01.08.2012 11:25 26,8 C 46 % 0,0 l/m 3,9 km/h (1 Bft) W-SW 247 14,2 C 28,5 C 5,0 km/h (1 Bft)
01.08.2012 11:30 26,5 C 45 % 0,0 l/m 3,9 km/h (1 Bft) W 270 13,6 C 28,4 C 5,6 km/h (1 Bft)
01.08.2012 11:35 25,6 C 48 % 0,0 l/m 3,7 km/h (1 Bft) NW 315 13,8 C 28,4 C 4,5 km/h (1 Bft)
01.08.2012 11:40 26,2 C 48 % 0,0 l/m 3,2 km/h (1 Bft) S-SW 202 14,3 C 28,5 C 4,5 km/h (1 Bft)
01.08.2012 11:45 26,3 C 47 % 0,0 l/m 3,1 km/h (1 Bft) S-SW 202 14,1 C 29,0 C 3,5 km/h (1 Bft)
01.08.2012 11:50 26,6 C 47 % 0,0 l/m 3,9 km/h (1 Bft) SW 225 14,3 C 28,7 C 9,8 km/h (2 Bft)
01.08.2012 11:55 26,4 C 46 % 0,0 l/m 4,5 km/h (1 Bft) W-SW 247 13,8 C 28,6 C 4,3 km/h (1 Bft)
01.08.2012 12:00 26,5 C 46 % 0,0 l/m 3,7 km/h (1 Bft) W 270 13,9 C 28,7 C 10,1 km/h (2 Bft)
01.08.2012 12:05 27,2 C 46 % 0,0 l/m 3,4 km/h (1 Bft) N-NW 337 14,6 C 28,6 C 7,4 km/h (2 Bft)
01.08.2012 12:10 27,1 C 45 % 0,0 l/m 3,9 km/h (1 Bft) W 270 14,1 C 28,7 C 9,2 km/h (2 Bft)
01.08.2012 12:15 27,4 C 46 % 0,0 l/m 4,0 km/h (1 Bft) W-NW 292 14,7 C 28,6 C 7,1 km/h (2 Bft)
01.08.2012 12:20 27,4 C 47 % 0,0 l/m 3,9 km/h (1 Bft) SW 225 15,1 C 28,8 C 4,7 km/h (1 Bft)
01.08.2012 12:25 28,0 C 45 % 0,0 l/m 3,9 km/h (1 Bft) S-SW 202 14,9 C 29,2 C 3,9 km/h (1 Bft)
01.08.2012 12:30 27,3 C 44 % 0,0 l/m 4,3 km/h (1 Bft) W-NW 292 14,0 C 29,2 C 6,1 km/h (2 Bft)
01.08.2012 12:35 27,3 C 43 % 0,0 l/m 4,7 km/h (1 Bft) W-NW 292 13,6 C 28,8 C 6,9 km/h (2 Bft)
01.08.2012 12:40 27,2 C 44 % 0,0 l/m 4,7 km/h (1 Bft) W-NW 292 13,9 C 28,7 C 10,3 km/h (2 Bft)
01.08.2012 12:45 27,7 C 41 % 0,0 l/m 4,2 km/h (1 Bft) W-SW 247 13,2 C 29,2 C 5,8 km/h (2 Bft)
01.08.2012 12:50 27,3 C 43 % 0,0 l/m 3,7 km/h (1 Bft) N-NW 337 13,6 C 29,1 C 6,3 km/h (2 Bft)
01.08.2012 12:55 28,3 C 43 % 0,0 l/m 3,7 km/h (1 Bft) W-SW 247 14,5 C 29,8 C 5,8 km/h (2 Bft)
01.08.2012 13:00 28,7 C 45 % 0,0 l/m 3,2 km/h (1 Bft) W-NW 292 15,6 C 30,1 C 6,0 km/h (2 Bft)
01.08.2012 13:05 28,1 C 45 % 0,0 l/m 4,0 km/h (1 Bft) W-NW 292 15,0 C 30,1 C 3,9 km/h (1 Bft)
01.08.2012 13:10 27,7 C 45 % 0,0 l/m 4,2 km/h (1 Bft) W 270 14,7 C 30,1 C 3,9 km/h (1 Bft)
01.08.2012 13:15 28,2 C 44 % 0,0 l/m 4,5 km/h (1 Bft) W-SW 247 14,8 C 30,0 C 8,7 km/h (2 Bft)
01.08.2012 13:20 28,0 C 45 % 0,0 l/m 4,3 km/h (1 Bft) W-NW 292 14,9 C 29,8 C 4,5 km/h (1 Bft)
01.08.2012 13:25 27,7 C 44 % 0,0 l/m 4,8 km/h (1 Bft) W-NW 292 14,3 C 29,8 C 5,8 km/h (2 Bft)
01.08.2012 13:30 27,5 C 42 % 0,0 l/m 4,3 km/h (1 Bft) W-NW 292 13,4 C 29,7 C 4,5 km/h (1 Bft)
01.08.2012 13:35 27,6 C 44 % 0,0 l/m 4,2 km/h (1 Bft) S 180 14,2 C 29,5 C 4,5 km/h (1 Bft)
01.08.2012 13:40 28,1 C 44 % 0,0 l/m 3,9 km/h (1 Bft) W-SW 247 14,7 C 29,5 C 5,0 km/h (1 Bft)
01.08.2012 13:45 27,7 C 42 % 0,0 l/m 4,7 km/h (1 Bft) W 270 13,6 C 29,4 C 10,6 km/h (2 Bft)
01.08.2012 13:50 28,0 C 43 % 0,0 l/m 5,3 km/h (1 Bft) W-NW 292 14,2 C 29,5 C 10,3 km/h (2 Bft)
01.08.2012 13:55 27,7 C 42 % 0,0 l/m 5,6 km/h (1 Bft) N-NO 22 13,6 C 29,4 C 2,6 km/h (1 Bft)
01.08.2012 14:00 28,1 C 42 % 0,0 l/m 4,5 km/h (1 Bft) W-NW 292 14,0 C 30,0 C 11,9 km/h (2 Bft)
01.08.2012 14:05 27,9 C 42 % 0,0 l/m 3,7 km/h (1 Bft) N 360 13,8 C 30,1 C 2,4 km/h (1 Bft)
01.08.2012 14:10 28,4 C 42 % 0,0 l/m 4,3 km/h (1 Bft) N-NW 337 14,2 C 30,2 C 2,4 km/h (1 Bft)
01.08.2012 14:15 28,3 C 41 % 0,0 l/m 4,5 km/h (1 Bft) W-NW 292 13,8 C 30,5 C 8,5 km/h (2 Bft)
01.08.2012 14:20 28,4 C 41 % 0,0 l/m 4,3 km/h (1 Bft) W 270 13,9 C 30,4 C 3,7 km/h (1 Bft)
01.08.2012 14:25 28,9 C 39 % 0,0 l/m 4,3 km/h (1 Bft) W-SW 247 13,5 C 30,7 C 2,9 km/h (1 Bft)
01.08.2012 14:30 28,8 C 40 % 0,0 l/m 4,5 km/h (1 Bft) W-NW 292 13,8 C 30,6 C 7,1 km/h (2 Bft)
01.08.2012 14:35 28,6 C 39 % 0,0 l/m 5,3 km/h (1 Bft) W 270 13,3 C 30,6 C 4,8 km/h (1 Bft)
01.08.2012 14:40 28,9 C 40 % 0,0 l/m 4,8 km/h (1 Bft) S 180 13,9 C 30,6 C 3,2 km/h (1 Bft)
01.08.2012 14:45 28,8 C 39 % 0,0 l/m 4,5 km/h (1 Bft) NW 315 13,4 C 31,0 C 5,5 km/h (1 Bft)
01.08.2012 14:50 29,1 C 40 % 0,0 l/m 4,5 km/h (1 Bft) W 270 14,1 C 31,0 C 5,5 km/h (1 Bft)
01.08.2012 14:55 29,2 C 39 % 0,0 l/m 4,5 km/h (1 Bft) S-SW 202 13,8 C 31,2 C 5,1 km/h (1 Bft)
01.08.2012 15:00 29,5 C 37 % 0,0 l/m 5,0 km/h (1 Bft) W-NW 292 13,3 C 31,1 C 10,0 km/h (2 Bft)
01.08.2012 15:05 29,5 C 38 % 0,0 l/m 5,6 km/h (1 Bft) S-SW 202 13,7 C 30,9 C 5,5 km/h (1 Bft)
01.08.2012 15:10 29,7 C 38 % 0,0 l/m 5,6 km/h (1 Bft) W-SW 247 13,8 C 30,9 C 12,2 km/h (2 Bft)
01.08.2012 15:15 29,8 C 38 % 0,0 l/m 5,3 km/h (1 Bft) SW 225 13,9 C 31,0 C 8,2 km/h (2 Bft)
01.08.2012 15:20 29,6 C 38 % 0,0 l/m 5,1 km/h (1 Bft) W-SW 247 13,8 C 31,2 C 6,3 km/h (2 Bft)
01.08.2012 15:25 29,6 C 38 % 0,0 l/m 5,6 km/h (1 Bft) S 180 13,8 C 31,1 C 9,2 km/h (2 Bft)
01.08.2012 15:30 29,6 C 39 % 0,0 l/m 5,1 km/h (1 Bft) S 180 14,2 C 31,3 C 6,6 km/h (2 Bft)
01.08.2012 15:35 29,5 C 37 % 0,0 l/m 4,2 km/h (1 Bft) W-SW 247 13,3 C 31,6 C 4,2 km/h (1 Bft)
01.08.2012 15:40 29,7 C 37 % 0,0 l/m 4,5 km/h (1 Bft) SW 225 13,4 C 31,7 C 6,8 km/h (2 Bft)
01.08.2012 15:45 29,5 C 36 % 0,0 l/m 5,3 km/h (1 Bft) W-NW 292 12,8 C 31,6 C 4,3 km/h (1 Bft)
01.08.2012 15:50 29,2 C 38 % 0,0 l/m 5,0 km/h (1 Bft) NW 315 13,4 C 31,6 C 4,0 km/h (1 Bft)
01.08.2012 15:55 26,7 C 48 % 0,0 l/m 4,3 km/h (1 Bft) W 270 14,8 C 31,7 C 3,1 km/h (1 Bft)
01.08.2012 16:00 27,7 C 44 % 0,0 l/m 4,7 km/h (1 Bft) NW 315 14,3 C 31,8 C 7,9 km/h (2 Bft)
01.08.2012 16:05 28,8 C 39 % 0,0 l/m 4,5 km/h (1 Bft) W-SW 247 13,4 C 31,8 C 5,1 km/h (1 Bft)
01.08.2012 16:10 29,1 C 37 % 0,0 l/m 4,8 km/h (1 Bft) W 270 12,9 C 31,7 C 9,0 km/h (2 Bft)
01.08.2012 16:15 29,3 C 37 % 0,0 l/m 4,3 km/h (1 Bft) S-SW 202 13,1 C 31,8 C 5,0 km/h (1 Bft)
01.08.2012 16:20 29,6 C 37 % 0,0 l/m 3,9 km/h (1 Bft) W-SW 247 13,3 C 32,1 C 5,8 km/h (2 Bft)
01.08.2012 16:25 29,1 C 36 % 0,0 l/m 3,1 km/h (1 Bft) SW 225 12,5 C 32,6 C 2,7 km/h (1 Bft)
01.08.2012 16:30 28,8 C 36 % 0,0 l/m 3,1 km/h (1 Bft) O 90 12,2 C 32,6 C 0,0 km/h (0 Bft)
01.08.2012 16:35 28,8 C 36 % 0,0 l/m 3,1 km/h (1 Bft) SW 225 12,2 C 32,7 C 6,4 km/h (2 Bft)
01.08.2012 16:40 28,6 C 37 % 0,0 l/m 2,9 km/h (1 Bft) N-NW 337 12,5 C 32,7 C 2,6 km/h (1 Bft)
01.08.2012 16:45 27,9 C 37 % 0,0 l/m 3,2 km/h (1 Bft) S 180 11,8 C 32,8 C 7,2 km/h (2 Bft)
01.08.2012 16:50 28,0 C 38 % 0,0 l/m 3,1 km/h (1 Bft) S-SW 202 12,3 C 32,9 C 2,9 km/h (1 Bft)
01.08.2012 16:55 27,8 C 39 % 0,0 l/m 5,0 km/h (1 Bft) W-NW 292 12,6 C 32,4 C 4,5 km/h (1 Bft)
01.08.2012 17:00 27,7 C 38 % 0,0 l/m 5,5 km/h (1 Bft) W-SW 247 12,1 C 32,3 C 5,6 km/h (1 Bft)
01.08.2012 17:05 27,4 C 38 % 0,0 l/m 4,5 km/h (1 Bft) W 270 11,8 C 32,3 C 5,0 km/h (1 Bft)
01.08.2012 17:10 27,3 C 40 % 0,0 l/m 4,2 km/h (1 Bft) NW 315 12,5 C 32,3 C 3,4 km/h (1 Bft)
01.08.2012 17:15 27,2 C 40 % 0,0 l/m 3,7 km/h (1 Bft) SW 225 12,4 C 32,6 C 4,3 km/h (1 Bft)
01.08.2012 17:20 27,3 C 40 % 0,0 l/m 3,2 km/h (1 Bft) NO 45 12,5 C 32,9 C 6,8 km/h (2 Bft)
01.08.2012 17:25 27,1 C 39 % 0,0 l/m 3,4 km/h (1 Bft) W-SW 247 11,9 C 32,9 C 6,3 km/h (2 Bft)
01.08.2012 17:30 26,9 C 39 % 0,0 l/m 2,9 km/h (1 Bft) W-SW 247 11,8 C 33,0 C 5,0 km/h (1 Bft)
01.08.2012 17:35 27,0 C 38 % 0,0 l/m 3,4 km/h (1 Bft) N-NO 22 11,5 C 32,9 C 2,4 km/h (1 Bft)
01.08.2012 17:40 27,0 C 38 % 0,0 l/m 3,7 km/h (1 Bft) W-SW 247 11,5 C 33,0 C 6,4 km/h (2 Bft)
01.08.2012 17:45 26,8 C 39 % 0,0 l/m 3,5 km/h (1 Bft) W-SW 247 11,7 C 32,9 C 7,2 km/h (2 Bft)
01.08.2012 17:50 26,9 C 38 % 0,0 l/m 4,0 km/h (1 Bft) W-SW 247 11,4 C 32,7 C 5,5 km/h (1 Bft)
01.08.2012 17:55 26,8 C 37 % 0,0 l/m 4,2 km/h (1 Bft) W-SW 247 10,9 C 32,5 C 4,0 km/h (1 Bft)
01.08.2012 18:00 26,7 C 38 % 0,0 l/m 3,2 km/h (1 Bft) W-SW 247 11,2 C 32,6 C 3,4 km/h (1 Bft)
01.08.2012 18:05 26,6 C 39 % 0,0 l/m 2,3 km/h (1 Bft) W-NW 292 11,5 C 33,0 C 3,1 km/h (1 Bft)
01.08.2012 18:10 26,5 C 39 % 0,0 l/m 2,3 km/h (1 Bft) W-NW 292 11,4 C 33,2 C 3,1 km/h (1 Bft)
01.08.2012 18:15 26,3 C 40 % 0,0 l/m 2,4 km/h (1 Bft) W 270 11,6 C 33,1 C 3,7 km/h (1 Bft)
01.08.2012 18:20 26,0 C 43 % 0,0 l/m 2,1 km/h (1 Bft) W-SW 247 12,4 C 33,1 C 6,1 km/h (2 Bft)
01.08.2012 18:25 26,4 C 39 % 0,0 l/m 2,7 km/h (1 Bft) S-SO 157 11,3 C 32,9 C 4,3 km/h (1 Bft)
01.08.2012 18:30 26,1 C 40 % 0,0 l/m 2,9 km/h (1 Bft) S 180 11,4 C 32,9 C 3,2 km/h (1 Bft)
01.08.2012 18:35 26,4 C 39 % 0,0 l/m 3,1 km/h (1 Bft) SW 225 11,3 C 32,6 C 5,6 km/h (1 Bft)
01.08.2012 18:40 26,6 C 37 % 0,0 l/m 3,9 km/h (1 Bft) S 180 10,7 C 32,2 C 3,5 km/h (1 Bft)
01.08.2012 18:45 26,4 C 39 % 0,0 l/m 3,2 km/h (1 Bft) NW 315 11,3 C 32,2 C 0,0 km/h (0 Bft)
01.08.2012 18:50 26,1 C 38 % 0,0 l/m 2,7 km/h (1 Bft) W-SW 247 10,7 C 32,2 C 2,4 km/h (1 Bft)
01.08.2012 18:55 25,7 C 42 % 0,0 l/m 2,7 km/h (1 Bft) N-NW 337 11,8 C 31,8 C 3,2 km/h (1 Bft)
01.08.2012 19:00 25,7 C 42 % 0,0 l/m 1,9 km/h (1 Bft) SO 135 11,8 C 31,7 C 0,0 km/h (0 Bft)
01.08.2012 19:05 25,4 C 43 % 0,0 l/m 1,0 km/h (0 Bft) N 360 11,9 C 32,0 C 3,1 km/h (1 Bft)
01.08.2012 19:10 25,3 C 43 % 0,0 l/m 0,6 km/h (0 Bft) N-NW 337 11,8 C 32,0 C 0,0 km/h (0 Bft)
01.08.2012 19:15 24,8 C 46 % 0,0 l/m 1,1 km/h (1 Bft) N-NO 22 12,4 C 31,6 C 3,9 km/h (1 Bft)
01.08.2012 19:20 24,6 C 48 % 0,0 l/m 1,6 km/h (1 Bft) N-NW 337 12,8 C 31,2 C 2,7 km/h (1 Bft)
01.08.2012 19:25 24,5 C 49 % 0,0 l/m 1,8 km/h (1 Bft) N 360 13,1 C 30,8 C 0,0 km/h (0 Bft)
01.08.2012 19:30 24,5 C 49 % 0,0 l/m 1,0 km/h (0 Bft) N 360 13,1 C 30,7 C 0,0 km/h (0 Bft)
01.08.2012 19:35 24,4 C 50 % 0,0 l/m 0,2 km/h (0 Bft) W-NW 292 13,3 C 30,4 C 0,0 km/h (0 Bft)
01.08.2012 19:40 24,2 C 52 % 0,0 l/m 0,3 km/h (0 Bft) N-NO 22 13,7 C 30,3 C 0,0 km/h (0 Bft)
01.08.2012 19:45 24,0 C 53 % 0,0 l/m 0,3 km/h (0 Bft) N-NO 22 13,8 C 30,0 C 0,0 km/h (0 Bft)
01.08.2012 19:50 23,8 C 54 % 0,0 l/m 0,3 km/h (0 Bft) N 360 13,9 C 29,8 C 0,0 km/h (0 Bft)
01.08.2012 19:55 23,5 C 55 % 0,0 l/m 0,2 km/h (0 Bft) N-NW 337 13,9 C 28,8 C 0,0 km/h (0 Bft)
01.08.2012 20:00 23,2 C 56 % 0,0 l/m 0,2 km/h (0 Bft) NO 45 13,9 C 27,4 C 1,6 km/h (1 Bft)
01.08.2012 20:05 22,8 C 58 % 0,0 l/m 0,2 km/h (0 Bft) NO 45 14,1 C 25,5 C 0,0 km/h (0 Bft)
01.08.2012 20:10 22,7 C 58 % 0,0 l/m 0,2 km/h (0 Bft) N-NO 22 14,0 C 25,0 C 0,0 km/h (0 Bft)
01.08.2012 20:15 22,5 C 58 % 0,0 l/m 0,0 km/h (0 Bft) W 270 13,8 C 24,8 C 0,0 km/h (0 Bft)
01.08.2012 20:20 22,4 C 59 % 0,0 l/m 0,0 km/h (0 Bft) N-NW 337 14,0 C 24,7 C 1,8 km/h (1 Bft)
01.08.2012 20:25 22,1 C 59 % 0,0 l/m 0,0 km/h (0 Bft) N-NO 22 13,7 C 24,4 C 0,0 km/h (0 Bft)
01.08.2012 20:30 22,1 C 59 % 0,0 l/m 0,0 km/h (0 Bft) N-NO 22 13,7 C 24,2 C 0,0 km/h (0 Bft)
01.08.2012 20:35 21,9 C 59 % 0,0 l/m 1,0 km/h (0 Bft) N-NO 22 13,5 C 23,6 C 0,0 km/h (0 Bft)
01.08.2012 20:40 21,7 C 60 % 0,0 l/m 1,6 km/h (1 Bft) N 360 13,6 C 23,0 C 2,7 km/h (1 Bft)
01.08.2012 20:45 21,6 C 59 % 0,0 l/m 1,6 km/h (1 Bft) N-NO 22 13,2 C 22,4 C 2,1 km/h (1 Bft)
01.08.2012 20:50 21,5 C 59 % 0,0 l/m 1,6 km/h (1 Bft) N 360 13,1 C 22,2 C 1,9 km/h (1 Bft)
01.08.2012 20:55 21,4 C 59 % 0,0 l/m 1,0 km/h (0 Bft) N 360 13,0 C 21,9 C 2,9 km/h (1 Bft)
01.08.2012 21:00 21,2 C 60 % 0,0 l/m 0,8 km/h (0 Bft) N-NO 22 13,1 C 21,7 C 0,0 km/h (0 Bft)
01.08.2012 21:05 20,6 C 62 % 0,0 l/m 0,5 km/h (0 Bft) O-NO 67 13,1 C 21,4 C 0,0 km/h (0 Bft)
01.08.2012 21:10 20,1 C 63 % 0,0 l/m 0,2 km/h (0 Bft) W-NW 292 12,8 C 21,1 C 2,1 km/h (1 Bft)
01.08.2012 21:15 19,8 C 68 % 0,0 l/m 0,5 km/h (0 Bft) N 360 13,7 C 20,5 C 0,0 km/h (0 Bft)
01.08.2012 21:20 19,8 C 66 % 0,0 l/m 0,6 km/h (0 Bft) N 360 13,3 C 20,2 C 0,0 km/h (0 Bft)
01.08.2012 21:25 19,9 C 65 % 0,0 l/m 0,5 km/h (0 Bft) N 360 13,1 C 20,0 C 2,1 km/h (1 Bft)
01.08.2012 21:30 20,0 C 65 % 0,0 l/m 0,5 km/h (0 Bft) O 90 13,2 C 19,9 C 0,0 km/h (0 Bft)
01.08.2012 21:35 19,8 C 65 % 0,0 l/m 0,3 km/h (0 Bft) N 360 13,0 C 19,7 C 0,0 km/h (0 Bft)
01.08.2012 21:40 19,2 C 66 % 0,0 l/m 0,2 km/h (0 Bft) W-SW 247 12,7 C 19,6 C 0,0 km/h (0 Bft)
01.08.2012 21:45 19,0 C 68 % 0,0 l/m 0,0 km/h (0 Bft) N 360 13,0 C 19,3 C 0,0 km/h (0 Bft)
01.08.2012 21:50 18,8 C 68 % 0,0 l/m 0,0 km/h (0 Bft) O-SO 112 12,8 C 19,1 C 0,0 km/h (0 Bft)
01.08.2012 21:55 18,7 C 68 % 0,0 l/m 0,3 km/h (0 Bft) SO 135 12,7 C 19,1 C 0,0 km/h (0 Bft)
01.08.2012 22:00 18,7 C 68 % 0,0 l/m 0,3 km/h (0 Bft) S-SO 157 12,7 C 19,1 C 0,0 km/h (0 Bft)
01.08.2012 22:05 18,7 C 68 % 0,0 l/m 0,2 km/h (0 Bft) N 360 12,7 C 19,1 C 0,0 km/h (0 Bft)
01.08.2012 22:10 18,6 C 69 % 0,0 l/m 0,0 km/h (0 Bft) N 360 12,8 C 19,0 C 0,0 km/h (0 Bft)
01.08.2012 22:15 18,9 C 69 % 0,0 l/m 0,5 km/h (0 Bft) O-NO 67 13,1 C 18,9 C 0,0 km/h (0 Bft)
01.08.2012 22:20 18,7 C 69 % 0,0 l/m 0,5 km/h (0 Bft) N-NO 22 12,9 C 18,8 C 0,0 km/h (0 Bft)
01.08.2012 22:25 18,9 C 70 % 0,0 l/m 0,3 km/h (0 Bft) O-NO 67 13,3 C 18,6 C 2,6 km/h (1 Bft)
01.08.2012 22:30 18,6 C 70 % 0,0 l/m 0,6 km/h (0 Bft) N-NO 22 13,0 C 18,6 C 0,0 km/h (0 Bft)
01.08.2012 22:35 18,5 C 69 % 0,0 l/m 1,0 km/h (0 Bft) N-NO 22 12,7 C 18,5 C 0,0 km/h (0 Bft)
01.08.2012 22:40 18,4 C 69 % 0,0 l/m 0,3 km/h (0 Bft) SO 135 12,6 C 18,3 C 0,0 km/h (0 Bft)
01.08.2012 22:45 18,2 C 69 % 0,0 l/m 0,0 km/h (0 Bft) N 360 12,4 C 18,3 C 0,0 km/h (0 Bft)
01.08.2012 22:50 18,1 C 69 % 0,0 l/m 0,0 km/h (0 Bft) NO 45 12,3 C 18,1 C 0,0 km/h (0 Bft)
01.08.2012 22:55 17,9 C 69 % 0,0 l/m 0,0 km/h (0 Bft) S 180 12,1 C 18,0 C 0,0 km/h (0 Bft)
01.08.2012 23:00 17,8 C 70 % 0,0 l/m 0,0 km/h (0 Bft) W-SW 247 12,3 C 17,9 C 0,0 km/h (0 Bft)
01.08.2012 23:05 17,9 C 70 % 0,0 l/m 0,2 km/h (0 Bft) N 360 12,3 C 18,0 C 1,8 km/h (1 Bft)
01.08.2012 23:10 18,0 C 70 % 0,0 l/m 0,2 km/h (0 Bft) N-NO 22 12,4 C 18,1 C 0,0 km/h (0 Bft)
01.08.2012 23:15 18,1 C 69 % 0,0 l/m 0,2 km/h (0 Bft) N 360 12,3 C 18,1 C 0,0 km/h (0 Bft)
01.08.2012 23:20 17,9 C 70 % 0,0 l/m 0,2 km/h (0 Bft) NO 45 12,3 C 17,9 C 0,0 km/h (0 Bft)
01.08.2012 23:25 18,3 C 71 % 0,0 l/m 1,1 km/h (1 Bft) N 360 12,9 C 17,8 C 2,9 km/h (1 Bft)
01.08.2012 23:30 18,2 C 70 % 0,0 l/m 1,4 km/h (1 Bft) N-NO 22 12,6 C 17,7 C 0,0 km/h (0 Bft)
01.08.2012 23:35 17,8 C 70 % 0,0 l/m 0,8 km/h (0 Bft) SO 135 12,3 C 17,6 C 1,8 km/h (1 Bft)
01.08.2012 23:40 17,4 C 72 % 0,0 l/m 0,3 km/h (0 Bft) N 360 12,3 C 17,5 C 0,0 km/h (0 Bft)
01.08.2012 23:45 17,2 C 73 % 0,0 l/m 0,3 km/h (0 Bft) N 360 12,3 C 17,1 C 0,0 km/h (0 Bft)
01.08.2012 23:50 17,3 C 73 % 0,0 l/m 0,2 km/h (0 Bft) NO 45 12,4 C 16,9 C 0,0 km/h (0 Bft)
01.08.2012 23:55 17,1 C 73 % 0,0 l/m 0,2 km/h (0 Bft) O 90 12,2 C 16,6 C 0,0 km/h (0 Bft)
_ Min-Zeit 06:20 16:35 - 23:00 - - 06:20 05:35 23:55
Minimum _ 9,4 C 36 % - 0,0 km/h (0 Bft) - - 8,0 C 9,2 C 0,0 km/h (0 Bft)
_ Max-Zeit 15:15 06:50 23:55 15:25 - - 08:45 18:10 15:10
Maximum _ 29,8 C 92 % 0,0 l/m 5,6 km/h
S (1 Bft)
- - 15,6 C 33,2 C 12,2 km/h
W-SW (2 Bft)
Durchschnitt _ 20,3 C 62 % #0,0 l/m 1,6 km/h (1 Bft) W-SW - 12,1 C 22,3 C 2,3 km/h (1 Bft)